Atka, AK

1:02 PM HST on February 20, 2017 (GMT -1000)
Atka

Weather History for PAAK - November, 2012

Change the Weather History Date:

Friday, November 30, 2012

  Actual Average (PADK) Record (PADK)
Temperature  
Mean Temperature 35 °F -  
Max Temperature 44 °F 40 °F 49 °F (1970)
Min Temperature 26 °F 31 °F 18 °F (1949)
Degree Days  
Heating Degree Days 30    
Moisture  
Dew Point -14 °F    
Average Humidity 12    
Maximum Humidity 13    
Minimum Humidity 11    
Precipitation  
Precipitation 0.00 in - - ()
Sea Level Pressure  
Sea Level Pressure 30.12 in    
Wind  
Wind Speed 9 mph (ESE)    
Max Wind Speed 22 mph    
Max Gust Speed 25 mph    
Visibility 10 miles    
Events      
Averages and records for this station are not official NWS values.
T = Trace of Precipitation, MM = Missing Value Source: NWS Daily Summary

Daily Weather History Graph

Daily Weather History Graph

Search for Another Location

Airport or City:

Trip Planner

Search our weather history database for the weather conditions in past years. The results will help you decide how hot, cold, wet, or windy it might be!

Date:

Astronomy

Nov. 30, 2012 Rise Set
Actual Time 9:23 AM HST 5:28 PM HST
Civil Twilight 8:43 AM HST 6:07 PM HST
Nautical Twilight 8:00 AM HST 6:50 PM HST
Astronomical Twilight 7:19 AM HST 7:31 PM HST
Moon 7:38 PM HST (11/30) 11:03 AM HST (11/30)
Length of Visible Light 9h 24m
Length of Day
8h 04m
Waning Gibbous, 95% of the Moon is Illuminated
Nov 30
Waning Gibbous
Dec 6
Last Quarter
Dec 12
New
Dec 19
First Quarter
Dec 28
Full

Hourly Weather History & Observations

Time (HST) Temp. Windchill Dew Point Humidity Pressure Visibility Wind Dir Wind Speed Gust Speed Precip Events Conditions
12:16 AM 35.6 °F 26.2 °F -13.0 °F 12% 30.09 in 10.0 mi East 15.0 mph 19.6 mph N/A   Clear
12:36 AM 37.4 °F 28.5 °F -13.0 °F 11% 30.10 in 10.0 mi ESE 15.0 mph - N/A   Clear
12:56 AM 37.4 °F 29.8 °F -13.0 °F 11% 30.10 in 10.0 mi ESE 11.5 mph - N/A   Clear
1:16 AM 37.4 °F 29.8 °F -11.2 °F 12% 30.10 in 10.0 mi East 11.5 mph - N/A   Clear
1:36 AM 37.4 °F 29.3 °F -11.2 °F 12% 30.10 in 10.0 mi ESE 12.7 mph - N/A   Clear
1:56 AM 37.4 °F 28.9 °F -11.2 °F 12% 30.11 in 10.0 mi ESE 13.8 mph - N/A   Clear
2:16 AM 37.4 °F 34.9 °F -11.2 °F 12% 30.11 in 10.0 mi East 3.5 mph - N/A   Clear
2:36 AM 33.8 °F 30.8 °F -14.8 °F 12% 30.11 in 10.0 mi ENE 3.5 mph - N/A   Clear
2:56 AM 33.8 °F 28.6 °F -14.8 °F 12% 30.11 in 10.0 mi East 5.8 mph - N/A   Clear
3:16 AM 35.6 °F 27.1 °F -14.8 °F 11% 30.11 in 10.0 mi ESE 12.7 mph - N/A   Clear
3:36 AM 37.4 °F 28.9 °F -11.2 °F 12% 30.11 in 10.0 mi ESE 13.8 mph - N/A   Clear
3:56 AM 37.4 °F 28.2 °F -11.2 °F 12% 30.11 in 10.0 mi ESE 16.1 mph - N/A   Clear
4:16 AM 37.4 °F 27.8 °F -11.2 °F 12% 30.10 in 10.0 mi ESE 17.3 mph - N/A   Clear
4:36 AM 37.4 °F 28.9 °F -11.2 °F 12% 30.09 in 10.0 mi SE 13.8 mph - N/A   Clear
4:56 AM 37.4 °F 32.8 °F -11.2 °F 12% 30.09 in 10.0 mi ESE 5.8 mph - N/A   Clear
5:16 AM 35.6 °F - -13.0 °F 12% 30.09 in 10.0 mi Calm Calm - N/A   Clear
5:36 AM 32.0 °F 26.4 °F -16.6 °F 12% 30.08 in 10.0 mi WNW 5.8 mph - N/A   Clear
5:56 AM 33.8 °F 25.3 °F -14.8 °F 12% 30.08 in 10.0 mi WSW 11.5 mph - N/A   Clear
6:16 AM 32.0 °F - -16.6 °F 12% 30.09 in 10.0 mi Calm Calm - N/A   Clear
6:36 AM 30.2 °F 23.4 °F -16.6 °F 13% 30.09 in 10.0 mi SSW 6.9 mph - N/A   Clear
6:56 AM 30.2 °F 25.4 °F -16.6 °F 13% 30.09 in 10.0 mi South 4.6 mph - N/A   Clear
7:16 AM 30.2 °F 23.4 °F -16.6 °F 13% 30.08 in 10.0 mi South 6.9 mph - N/A   Clear
7:36 AM 30.2 °F - -16.6 °F 13% 30.09 in 10.0 mi Calm Calm - N/A   Clear
7:56 AM 28.4 °F - -18.4 °F 12% 30.09 in 10.0 mi Calm Calm - N/A   Clear
8:16 AM 30.2 °F 22.6 °F -16.6 °F 13% 30.09 in 10.0 mi SE 8.1 mph - N/A   Clear
8:36 AM 35.6 °F 28.6 °F -14.8 °F 11% 30.10 in 10.0 mi South 9.2 mph - N/A   Clear
8:56 AM 33.8 °F 30.8 °F -14.8 °F 12% 30.11 in 10.0 mi North 3.5 mph - N/A   Clear
9:16 AM 33.8 °F 27.0 °F -14.8 °F 12% 30.10 in 10.0 mi East 8.1 mph - N/A   Clear
9:36 AM 35.6 °F 28.0 °F -14.8 °F 11% 30.10 in 10.0 mi SSE 10.4 mph - N/A   Clear
9:56 AM 33.8 °F 29.6 °F -14.8 °F 12% 30.11 in 10.0 mi South 4.6 mph - N/A   Clear
10:16 AM 35.6 °F 30.7 °F -14.8 °F 11% 30.11 in 10.0 mi NE 5.8 mph 21.9 mph N/A   Clear
10:36 AM 33.8 °F 28.6 °F -14.8 °F 12% 30.11 in 10.0 mi SSE 5.8 mph - N/A   Clear
10:56 AM 35.6 °F 28.6 °F -14.8 °F 11% 30.11 in 10.0 mi East 9.2 mph - N/A   Clear
11:16 AM 37.4 °F 27.8 °F -11.2 °F 12% 30.12 in 10.0 mi ESE 17.3 mph - N/A   Clear
11:36 AM 39.2 °F 30.2 °F -11.2 °F 11% 30.12 in 10.0 mi ESE 17.3 mph 21.9 mph N/A   Clear
11:56 AM 39.2 °F 35.0 °F -9.4 °F 12% 30.12 in 10.0 mi NNE 5.8 mph - N/A   Clear
12:16 PM 41.0 °F - -9.4 °F 12% 30.12 in 10.0 mi Calm Calm - N/A   Clear
12:36 PM 41.0 °F 31.4 °F -9.4 °F 12% 30.11 in 10.0 mi East 21.9 mph 25.3 mph N/A   Clear
12:56 PM 41.0 °F 32.8 °F -9.4 °F 12% 30.11 in 10.0 mi East 16.1 mph 23.0 mph N/A   Clear
1:16 PM 41.0 °F 32.8 °F -9.4 °F 12% 30.11 in 10.0 mi East 16.1 mph - N/A   Clear
1:36 PM 41.0 °F 33.1 °F -9.4 °F 12% 30.10 in 10.0 mi East 15.0 mph 25.3 mph N/A   Clear
1:56 PM 42.8 °F 39.3 °F -9.4 °F 11% 30.11 in 10.0 mi East 5.8 mph - N/A   Clear
2:16 PM 44.6 °F - -7.6 °F 11% 30.11 in 10.0 mi Calm Calm - N/A   Clear
2:36 PM 44.6 °F - -7.6 °F 11% 30.10 in 10.0 mi Calm Calm - N/A   Clear
2:56 PM 44.6 °F 40.2 °F -7.6 °F 11% 30.10 in 10.0 mi ESE 8.1 mph - N/A   Clear
3:16 PM 42.8 °F 36.6 °F -9.4 °F 11% 30.10 in 10.0 mi East 11.5 mph 19.6 mph N/A   Clear
3:36 PM 41.0 °F 34.3 °F -9.4 °F 12% 30.11 in 10.0 mi ESE 11.5 mph 19.6 mph N/A   Clear
3:56 PM 39.2 °F 30.8 °F -9.4 °F 12% 30.11 in 10.0 mi ESE 15.0 mph - N/A   Clear
4:16 PM 39.2 °F 31.6 °F -9.4 °F 12% 30.12 in 10.0 mi East 12.7 mph 19.6 mph N/A   Clear
4:36 PM 37.4 °F 30.3 °F -11.2 °F 12% 30.12 in 10.0 mi East 10.4 mph 18.4 mph N/A   Clear
4:56 PM 37.4 °F - -11.2 °F 12% 30.13 in 10.0 mi Calm Calm - N/A   Clear
5:16 PM 33.8 °F - -14.8 °F 12% 30.14 in 10.0 mi Calm Calm - N/A   Clear
5:36 PM 33.8 °F - -14.8 °F 12% 30.15 in 10.0 mi Calm Calm - N/A   Clear
5:56 PM 32.0 °F 27.5 °F -16.6 °F 12% 30.15 in 10.0 mi South 4.6 mph - N/A   Clear
6:16 PM 33.8 °F 28.6 °F -14.8 °F 12% 30.15 in 10.0 mi South 5.8 mph - N/A   Clear
6:36 PM 33.8 °F 28.6 °F -14.8 °F 12% 30.16 in 10.0 mi SSE 5.8 mph - N/A   Clear
7:16 PM 33.8 °F - -14.8 °F 12% 30.17 in 9.0 mi Calm Calm - N/A   Clear
7:36 PM 30.2 °F 25.4 °F -16.6 °F 13% 30.17 in 10.0 mi South 4.6 mph - N/A   Clear
7:56 PM 30.2 °F 24.3 °F -16.6 °F 13% 30.18 in 9.0 mi SSE 5.8 mph - N/A   Clear
8:16 PM 30.2 °F - -16.6 °F 13% 30.18 in 10.0 mi Calm Calm - N/A   Clear
8:36 PM 28.4 °F - -18.4 °F 12% 30.18 in 10.0 mi Calm Calm - N/A   Clear
8:56 PM 28.4 °F - -18.4 °F 12% 30.18 in 9.0 mi Calm Calm - N/A   Clear
9:16 PM 28.4 °F - -18.4 °F 12% 30.18 in 9.0 mi Calm Calm - N/A   Scattered Clouds
9:36 PM 28.4 °F - -18.4 °F 12% 30.17 in 6.0 mi Calm Calm - N/A   Scattered Clouds
9:56 PM 28.4 °F - -18.4 °F 12% 30.17 in 7.0 mi Calm Calm - N/A   Clear
10:16 PM 30.2 °F 24.3 °F -18.4 °F 11% 30.17 in 10.0 mi East 5.8 mph - N/A   Clear
10:36 PM 30.2 °F 25.4 °F -16.6 °F 13% 30.18 in 10.0 mi SE 4.6 mph - N/A   Clear
10:56 PM 28.4 °F - -18.4 °F 12% 30.19 in 10.0 mi Calm Calm - N/A   Clear
11:16 PM 26.6 °F - -18.4 °F 13% 30.19 in 10.0 mi Calm Calm - N/A   Clear
11:36 PM 26.6 °F 21.2 °F -18.4 °F 13% 30.20 in 10.0 mi North 4.6 mph - N/A   Clear
11:56 PM 26.6 °F - -20.2 °F 12% 30.21 in 9.0 mi Calm Calm - N/A   Clear